Weather History for Kars, Turkey

Change the Weather History Date:

Saturday, May 17, 2014

  Actual Average Record
Temperature  
Mean Temperature 56 °F -  
Max Temperature 73 °F 66 °F - ()
Min Temperature 40 °F 42 °F - ()
Degree Days  
Heating Degree Days 8    
Growing Degree Days 6 (Base 50)    
Moisture  
Dew Point 43 °F    
Average Humidity 58    
Maximum Humidity 100    
Minimum Humidity 23    
Precipitation  
Precipitation 0.00 in 0.10 in - ()
Sea Level Pressure  
Sea Level Pressure 30.18 in    
Wind  
Wind Speed 4 mph ()    
Max Wind Speed 14 mph    
Max Gust Speed -    
Visibility 6.1 miles    
Events      
T = Trace of Precipitation, MM = Missing Value Source: Averaged Metar Reports

Daily Weather History Graph

Daily Weather History Graph

Search for Another Location

Airport:

Trip Planner

Search our weather history database for the weather conditions in past years. The results will help you decide how hot, cold, wet, or windy it might be!

Date:

Astronomy

May. 17, 2014 Rise Set
Actual Time 4:49 AM EEST 7:19 PM EEST
Civil Twilight 4:18 AM EEST 7:50 PM EEST
Nautical Twilight 3:39 AM EEST 8:29 PM EEST
Astronomical Twilight 2:56 AM EEST 9:12 PM EEST
Moon 10:00 PM EEST (5/17) 7:09 AM EEST (5/17)
Length of Visible Light 15h 32m
Length of Day
14h 29m
Waning Gibbous, 91% of the Moon is Illuminated
May 17
Waning Gibbous
May 21
Last Quarter
May 28
New
Jun 5
First Quarter
Jun 13
Full

Hourly Weather History & Observations

Time (EEST) Temp. Windchill Dew Point Humidity Pressure Visibility Wind Dir Wind Speed Gust Speed Precip Events Conditions
12:00 AM 49 °F - 43 °F 73%  in 6 mi SSE 5.8 mph - -  
12:50 AM 48.2 °F - 39.2 °F 71% 30.18 in - East 1.2 mph - N/A   Clear
1:50 AM 44.6 °F - 39.2 °F 81% 30.18 in - South 1.2 mph - N/A   Clear
3:00 AM 45 °F - 43 °F 88%  in 6 mi Calm Calm - -  
3:50 AM 42.8 °F - 42.8 °F 100% 30.18 in - Calm Calm - N/A   Clear
4:50 AM 42.8 °F 40.1 °F 42.8 °F 100% 30.18 in - WNW 4.6 mph - N/A   Clear
5:50 AM 44.6 °F - 42.8 °F 93% 30.21 in - Variable 1.2 mph - N/A   Clear
6:00 AM 44 °F - 44 °F 97%  in 6 mi NNW 1.2 mph - -  
6:50 AM 48.2 °F - 46.4 °F 93% 30.21 in - Calm Calm - N/A   Clear
7:50 AM 55.4 °F - 46.4 °F 72% 30.21 in - West 3.5 mph - N/A   Clear
8:50 AM 60.8 °F - 46.4 °F 59% 30.21 in - Calm Calm - N/A   Clear
9:00 AM 61 °F - 45 °F 45%  in 6 mi Calm Calm - -  
9:50 AM 66.2 °F - 46.4 °F 49% 30.21 in 6.2 mi Variable 1.2 mph - N/A   Partly Cloudy
10:50 AM 68.0 °F - 44.6 °F 43% 30.18 in 6.2 mi Variable 1.2 mph - N/A   Partly Cloudy
11:50 AM 69.8 °F - 41.0 °F 35% 30.18 in 6.2 mi Variable 3.5 mph - N/A   Scattered Clouds
12:00 PM 70 °F - 41 °F 24%  in 6 mi North 3.5 mph - -   Partly Cloudy
12:16 PM 71.6 °F - 41.0 °F 33% 30.18 in 6.2 mi Variable 1.2 mph - N/A   Scattered Clouds
12:50 PM 69.8 °F - 42.8 °F 38% 30.18 in 6.2 mi SSE 13.8 mph - N/A   Scattered Clouds
1:50 PM 71.6 °F - 44.6 °F 38% 30.18 in 6.2 mi South 9.2 mph - N/A   Scattered Clouds
2:50 PM 71.6 °F - 42.8 °F 35% 30.15 in 6.2 mi ESE 13.8 mph - N/A   Mostly Cloudy
3:00 PM 72 °F - 42 °F 23%  in 6 mi ESE 13.8 mph - -   Mostly Cloudy
3:50 PM 69.8 °F - 39.2 °F 33% 30.15 in 6.2 mi SE 11.5 mph - N/A   Mostly Cloudy
4:50 PM 68.0 °F - 42.8 °F 40% 30.15 in 6.2 mi ESE 8.1 mph - N/A   Mostly Cloudy
5:50 PM 68.0 °F - 42.8 °F 40% 30.15 in 6.2 mi ESE 10.4 mph - N/A   Mostly Cloudy
6:00 PM 68 °F - 42 °F 27%  in 6 mi ESE 10.4 mph - -   Mostly Cloudy
6:50 PM 60.8 °F - 41.0 °F 48% 30.18 in 6.2 mi NE 12.7 mph - N/A   Mostly Cloudy
7:50 PM 55.4 °F - 44.6 °F 67% 30.18 in 6.2 mi ESE 8.1 mph - N/A   Mostly Cloudy
8:50 PM 55.4 °F - 41.0 °F 58% 30.18 in 6.2 mi Variable 1.2 mph - N/A   Mostly Cloudy
9:00 PM 55 °F - 40 °F 45%  in 6 mi East 1.2 mph - -   Mostly Cloudy
9:50 PM 53.6 °F - 44.6 °F 72% 30.18 in 6.2 mi NNW 3.5 mph - N/A   Mostly Cloudy
10:50 PM 53.6 °F - 42.8 °F 67% 30.18 in 6.2 mi Calm Calm - N/A   Mostly Cloudy
11:50 PM 53.6 °F - 42.8 °F 67% 30.18 in 6.2 mi SSE 1.2 mph - N/A   Mostly Cloudy